Location: Hains Lake
(37.8540°N, 99.8578°W)
Time: 03:38:20
(UTC+00:00)

Vanguard 1 - Pass Details

Date: 10 December 2021
Orbit: 652 x 3830 km, 34.2° (Epoch: 21 January)

Event Time Altitude Azimuth Distance (km) Brightness Sun altitude
Exits shadow 11:52:18 24° 267° (W) 5,469 13.2 -21.4°
Maximum altitude 12:02:52 37° 224° (SW) 4,098 12.9 -19.4°
Drops below altitude 10° 12:15:28 10° 163° (SSE) 4,677 13.9 -17.0°
Sets 12:18:49 0° 154° (SSE) 5,288 14.5 -16.4°
